User: anonymous
Location: Drayton Valley
(53.2170°N, 114.9830°W)
Time: 07:51:43
(UTC-06:00)
Language:

Cosmos 1302 Rocket - Orbit

View from above orbital plane
View from above orbital plane
View from above satellite
View from above satellite

Ground track
Ground track

The orbit data is extracted from the following two-line orbital elements,

1 12792U 81084B   14272.46742468  .00000336  00000-0  12175-3 0  6289
2 12792 074.0306 060.6839 0014266 230.2545 184.4156 14.37137652732577
Epoch (UTC): 29 September 2014 11:13:05
Eccentricity: 0.0014266
inclination: 74.0306°
perigee height: 758 km
apogee height: 778 km
right ascension of ascending node: 60.6839°
argument of perigee: 230.2545°
revolutions per day: 14.37137652
mean anomaly at epoch: 184.4156°
orbit number at epoch: 73257

The dashed part of the orbit path shows where the satellite is in the earth's shadow,  

DLR